If you wish to contribute or participate in the discussions about articles you are invited to join SKYbrary as a registered user

 Actions

Béziers-Vias Airport

From SKYbrary Wiki

LFMU
Airport
ICAO: LFMU – IATA: BZR
Summary
Name Béziers-Vias Airport
Region Europe
Territory France FR.gif
Location , Languedoc-Roussillon
Serving Beziers
Elevation 17.069 m
56 ft
56 ft17.069 m
Type medium airport
Coordinates 43° 19' 24.68" N, 3° 21' 14.05" E
Runways
Designator Length Width Surface ROPS
10/28 1820 m5,971.129 ft
30 m98.425 ft
ASP /


METAR
Observation LFMU 191930Z AUTO 27008KT CAVOK 23/12 Q1017 NOSIG
Station Beziers / Vias
Date/Time 19 August 2019 19:30:00
Wind direction 270°
Wind speed 08 kts
Lowest cloud amount clouds and visibility OK
Temperature 23°C
Dew point 12°C
Humidity 49%
QNH 1017 hPa
Weather condition n/a